• In Netherlands
  • List of Countries
  • For 7 days
  • Water Temperature
  • Satellite Maps
  • Weather Map
  • Weather Widgets
  • user-avatar
    Login

    Hourly Weather Baranovichi

    Today, 20 February, Monday

    Time Temperature Precipitation Wind Pressure Humidity
    00:00 -2°C° 0 mm 4 mps 746 mmHg 95%
    01:00 -2°C° 0 mm 4 mps 746 mmHg 95%
    02:00 -1°C° 0 mm 3 mps 745 mmHg 96%
    03:00 -1°C° 0 mm 3 mps 745 mmHg 96%
    04:00 -1°C° 0 mm 4 mps 745 mmHg 96%
    05:00 -1°C° 0 mm 4 mps 744 mmHg 96%
    06:00 -1°C° 0 mm 4 mps 744 mmHg 96%
    07:00 -1°C° 0 mm 4 mps 744 mmHg 96%
    08:00 -1°C° 0 mm 4 mps 743 mmHg 97%
    09:00 -1°C° 0 mm 4 mps 743 mmHg 96%
    10:00 -1°C° 0 mm 4 mps 743 mmHg 96%
    11:00 0°C° 0 mm 5 mps 743 mmHg 95%
    12:00 0°C° 0 mm 5 mps 742 mmHg 95%
    13:00 0°C° 0 mm 5 mps 742 mmHg 95%
    14:00 0°C° 0 mm 5 mps 742 mmHg 95%
    15:00 0°C° 0.1 mm 5 mps 741 mmHg 95%
    16:00 0°C° 0.1 mm 5 mps 741 mmHg 96%
    17:00 0°C° 0.1 mm 5 mps 740 mmHg 96%
    18:00 0°C° 0 mm 5 mps 739 mmHg 96%
    19:00 0°C° 0 mm 5 mps 739 mmHg 96%
    20:00 0°C° 0 mm 5 mps 738 mmHg 95%
    21:00 -1°C° 0.1 mm 6 mps 737 mmHg 95%
    22:00 -1°C° 0.1 mm 6 mps 736 mmHg 95%
    23:00 -1°C° 0.1 mm 6 mps 735 mmHg 94%

    Tomorrow, 21 February, Tuesday

    Time Temperature Precipitation Wind Pressure Humidity
    00:00 -1°C° 0.7 mm 7 mps 734 mmHg 95%
    01:00 -1°C° 0.7 mm 7 mps 733 mmHg 95%
    02:00 -1°C° 0.7 mm 7 mps 732 mmHg 95%
    03:00 -1°C° 0.8 mm 7 mps 731 mmHg 95%
    04:00 -1°C° 0.8 mm 6 mps 731 mmHg 96%
    05:00 -1°C° 0.8 mm 6 mps 730 mmHg 96%
    06:00 +1°C° 0.3 mm 6 mps 729 mmHg 97%
    07:00 +1°C° 0.3 mm 5 mps 729 mmHg 97%
    08:00 +1°C° 0.3 mm 5 mps 729 mmHg 98%
    09:00 +2°C° 0.1 mm 5 mps 729 mmHg 97%
    10:00 +2°C° 0.1 mm 5 mps 729 mmHg 97%
    11:00 +2°C° 0.1 mm 5 mps 729 mmHg 97%
    12:00 +2°C° 0.1 mm 5 mps 729 mmHg 96%
    13:00 +2°C° 0.1 mm 5 mps 729 mmHg 95%
    14:00 +2°C° 0.1 mm 5 mps 730 mmHg 94%
    15:00 +2°C° 0 mm 5 mps 730 mmHg 95%
    16:00 +1°C° 0 mm 5 mps 730 mmHg 95%
    17:00 +1°C° 0 mm 4 mps 730 mmHg 95%
    18:00 +1°C° 0 mm 4 mps 731 mmHg 95%
    19:00 +1°C° 0 mm 4 mps 731 mmHg 94%
    20:00 0°C° 0 mm 4 mps 731 mmHg 94%
    21:00 0°C° 0.1 mm 4 mps 731 mmHg 94%
    22:00 0°C° 0.1 mm 4 mps 731 mmHg 94%
    23:00 0°C° 0.1 mm 4 mps 731 mmHg 94%

    Day after tomorrow, 22 February, Wednesday

    Time Temperature Precipitation Wind Pressure Humidity
    00:00 0°C° 0.1 mm 4 mps 731 mmHg 94%
    01:00 0°C° 0.1 mm 4 mps 731 mmHg 94%
    02:00 0°C° 0.1 mm 5 mps 730 mmHg 93%
    03:00 0°C° 0.3 mm 5 mps 731 mmHg 94%
    04:00 0°C° 0.3 mm 5 mps 731 mmHg 94%
    05:00 0°C° 0.3 mm 5 mps 732 mmHg 94%
    06:00 -1°C° 0.1 mm 5 mps 732 mmHg 93%
    07:00 -1°C° 0.1 mm 5 mps 733 mmHg 93%
    08:00 -1°C° 0.1 mm 5 mps 734 mmHg 92%
    09:00 -1°C° 0 mm 5 mps 735 mmHg 90%
    10:00 -1°C° 0 mm 4 mps 735 mmHg 88%
    11:00 -1°C° 0 mm 4 mps 736 mmHg 86%
    12:00 -1°C° 0 mm 4 mps 736 mmHg 86%
    13:00 -1°C° 0 mm 4 mps 735 mmHg 86%
    14:00 +1°C° 0 mm 3 mps 735 mmHg 86%
    15:00 0°C° 0.1 mm 4 mps 734 mmHg 88%
    16:00 -1°C° 0.1 mm 4 mps 733 mmHg 91%
    17:00 -1°C° 0.1 mm 4 mps 732 mmHg 93%
    18:00 0°C° 1 mm 5 mps 731 mmHg 94%
    19:00 0°C° 1 mm 5 mps 730 mmHg 96%
    20:00 0°C° 1 mm 5 mps 728 mmHg 97%
    21:00 +1°C° 1 mm 5 mps 727 mmHg 97%
    22:00 +2°C° 1 mm 5 mps 727 mmHg 98%
    23:00 +2°C° 1 mm 5 mps 726 mmHg 99%

    23 February, Thursday

    Time Temperature Precipitation Wind Pressure Humidity
    00:00 +2°C° 0.5 mm 5 mps 726 mmHg 98%
    01:00 +2°C° 0.5 mm 5 mps 726 mmHg 97%
    02:00 +2°C° 0.5 mm 5 mps 726 mmHg 97%
    03:00 +1°C° 0.1 mm 5 mps 726 mmHg 96%
    04:00 0°C° 0.1 mm 5 mps 727 mmHg 95%
    05:00 -1°C° 0.1 mm 5 mps 727 mmHg 94%
    06:00 -1°C° 0.1 mm 5 mps 727 mmHg 93%
    07:00 -1°C° 0.1 mm 6 mps 727 mmHg 93%
    08:00 -1°C° 0.1 mm 6 mps 728 mmHg 92%
    09:00 -1°C° 0.1 mm 6 mps 728 mmHg 91%
    10:00 -1°C° 0.1 mm 7 mps 728 mmHg 89%
    11:00 0°C° 0.1 mm 7 mps 728 mmHg 88%
    12:00 -1°C° 0.1 mm 7 mps 729 mmHg 87%
    13:00 -1°C° 0.1 mm 7 mps 729 mmHg 87%
    14:00 -1°C° 0.1 mm 7 mps 730 mmHg 86%
    15:00 -1°C° 0 mm 6 mps 730 mmHg 87%
    16:00 -1°C° 0 mm 6 mps 731 mmHg 88%
    17:00 0°C° 0 mm 5 mps 731 mmHg 89%
    18:00 -1°C° 0 mm 5 mps 731 mmHg 90%
    19:00 -1°C° 0 mm 4 mps 731 mmHg 91%
    20:00 0°C° 0 mm 3 mps 731 mmHg 93%
    21:00 0°C° 0.2 mm 3 mps 730 mmHg 94%
    22:00 0°C° 0.2 mm 3 mps 729 mmHg 94%
    23:00 0°C° 0.2 mm 3 mps 728 mmHg 95%

    24 February, Friday

    Time Temperature Precipitation Wind Pressure Humidity
    00:00 0°C° 0.8 mm 3 mps 727 mmHg 96%
    01:00 0°C° 0.8 mm 4 mps 726 mmHg 97%
    02:00 0°C° 0.8 mm 5 mps 724 mmHg 98%
    03:00 +1°C° 1.1 mm 5 mps 723 mmHg 97%
    04:00 +2°C° 1.1 mm 5 mps 722 mmHg 97%
    05:00 +3°C° 1.1 mm 5 mps 721 mmHg 97%
    06:00 +2°C° 0.2 mm 6 mps 721 mmHg 95%
    07:00 0°C° 0.2 mm 7 mps 720 mmHg 94%
    08:00 0°C° 0.2 mm 8 mps 720 mmHg 92%
    09:00 0°C° 0.3 mm 8 mps 721 mmHg 91%
    10:00 0°C° 0.3 mm 9 mps 722 mmHg 90%
    11:00 0°C° 0.3 mm 9 mps 723 mmHg 89%
    12:00 -1°C° 0.2 mm 9 mps 724 mmHg 89%
    13:00 -1°C° 0.2 mm 8 mps 726 mmHg 88%
    14:00 -2°C° 0.2 mm 8 mps 728 mmHg 88%
    15:00 -2°C° 0.1 mm 7 mps 729 mmHg 88%
    16:00 -3°C° 0.1 mm 6 mps 730 mmHg 88%
    17:00 -2°C° 0.1 mm 4 mps 731 mmHg 88%
    18:00 -2°C° 0 mm 3 mps 732 mmHg 90%
    19:00 -3°C° 0 mm 2 mps 732 mmHg 92%
    20:00 -1°C° 0 mm 1 mps 733 mmHg 94%
    21:00 -1°C° 0 mm 1 mps 733 mmHg 93%
    22:00 -1°C° 0 mm 1 mps 733 mmHg 93%
    23:00 -2°C° 0 mm 1 mps 733 mmHg 93%

    25 February, Saturday

    Time Temperature Precipitation Wind Pressure Humidity
    00:00 -1°C° 0 mm 1 mps 733 mmHg 92%
    01:00 -3°C° 0 mm 2 mps 733 mmHg 91%
    02:00 -3°C° 0 mm 2 mps 732 mmHg 91%
    03:00 -3°C° 0.1 mm 2 mps 732 mmHg 91%
    04:00 -2°C° 0.1 mm 3 mps 731 mmHg 92%
    05:00 -2°C° 0.1 mm 3 mps 731 mmHg 92%
    06:00 -2°C° 0.1 mm 3 mps 730 mmHg 92%
    07:00 -2°C° 0.1 mm 3 mps 730 mmHg 93%
    08:00 -2°C° 0.1 mm 3 mps 729 mmHg 93%
    09:00 -1°C° 0.1 mm 3 mps 729 mmHg 92%
    10:00 -1°C° 0.1 mm 3 mps 729 mmHg 91%
    11:00 0°C° 0.1 mm 3 mps 729 mmHg 89%
    12:00 0°C° 0.4 mm 3 mps 729 mmHg 89%
    13:00 -1°C° 0.4 mm 4 mps 729 mmHg 89%
    14:00 0°C° 0.4 mm 4 mps 729 mmHg 90%
    15:00 -1°C° 0.3 mm 4 mps 729 mmHg 89%
    16:00 -1°C° 0.3 mm 5 mps 730 mmHg 88%
    17:00 -3°C° 0.3 mm 6 mps 730 mmHg 87%
    18:00 -4°C° 0 mm 5 mps 730 mmHg 88%
    19:00 -4°C° 0 mm 5 mps 731 mmHg 89%
    20:00 -5°C° 0 mm 5 mps 731 mmHg 89%
    21:00 -5°C° 0 mm 5 mps 732 mmHg 90%
    22:00 -5°C° 0 mm 5 mps 732 mmHg 90%
    23:00 -5°C° 0 mm 5 mps 732 mmHg 91%
    Show more